THOR ABLESTAR DEB, 538

Orbit data source: Space-Track

THOR ABLESTAR DEB, 538 is space debris in LEO originally from a launch on Thu, 29 Jun 1961 UTC launched from the Air Force Eastern Test Range (AFETR). Debris objects in space refer to the collection of defunct objects orbiting the Earth. Examples of debris include non-operational satellites, rocket bodies, and fragments generated from explosions, collisions, or faulty payload assembly.

Loading next visibility...
Identifier
538, 1961-015FX
Orbit
LEO
Last TLE update
6 hours ago
Origin
Manufacturer
Unknown
Mission
Spacecraft
Bus & Motor
Unknown
Mass
Unknown
Launch date (UTC)
1961-06-29 (64 years ago)
Launch vehicle
Unknown
Launch site
Air Force Eastern Test Range (AFETR)
Object type
Payload
Rocket body
Debris
Shape & HBR
Unknown
Radar Cross Section
Small (<0.1 m²)

Expand to show TLE details & history

TLE from 6 hours ago
0 THOR ABLESTAR DEB
1 00538U 61015FX  25182.59234457  .00002661  00000-0  55548-3 0  9991
2 00538  67.8042 165.9468 0011385 270.3810  89.6009 14.61294654312306
Epoch: 2025-07-01T14:12Z
TLE epoch observation values (Epoch: 2025-07-01T14:12:58.57Z)
Latitude
Longitude
32.81717°
Altitude
691.173 km
Speed
7.511 km/s
True Right ascension
11h 03m 47s
True Declination
0° 00' 00"
Sunlit
Object was in daylight at epoch
Visualization orbit readout
Latitude
-35.62472°
Longitude
-130.92559°
Altitude
696.705 km
Speed
7.51 km/s
Apparent Right ascension
22h 10m 28s
Apparent Declination
-42° 14' 56"
Sunlit
Object is in daylight
Visualization observer readout
Local Sidereal Time
07:48:36
Azimuth
253.303° W
Elevation
-63.36°
Doppler factor
1
Orbital elements
Apogee altitude
695.263 km
Perigee altitude
679.176 km
Semi-major axis
7,065.357 km
Eccentricity
0.00114
Inclination
67.8042°
RAAN
165.9468°
Arg. of periapsis
270.381°
True anomaly
Unknown
Mean anomaly
89.6009°
Eccentric anomaly
Unknown
Mean motion
3.65462 °/min
Orbital period
98.51 mins
BSTAR
0.00055548
Loading maneuver chart data...
Loading SW <> Apogee altitude chart data...

THOR ABLESTAR DEB Visibility forecast

Observer location: undefined°, undefined°

Span
Click to sort rows by Start time (UTC) header in descending order
Start Az.
Max El. time (UTC)
Max El. Az.
Max El.
End time (UTC)
End Az.
8 mins2025-07-02 00:11:34.325Z188.762° SSW2025-07-02 00:15:34.325Z126.731° SE39.123°2025-07-02 00:19:34.325Z39.474° NE
5 mins2025-07-02 01:55:34.325Z284.863° WNW2025-07-02 01:57:34.325Z316.283° NNW18.261°2025-07-02 02:00:34.325Z355.626° N
6 mins2025-07-02 08:50:34.325Z13.5° NNE2025-07-02 08:52:34.325Z49.027° ENE24.14°2025-07-02 08:56:34.325Z108.363° ESE
7 mins2025-07-02 10:30:34.325Z308.783° NW2025-07-02 10:33:34.325Z258.545° W30.448°2025-07-02 10:37:34.325Z187.934° SSW
|